Flag for Canada

Past Weather in 51°36'01.1"N, 55°31'57.4"W, Canada — Yesterday and Last 2 Weeks

Currently: 36 °F. Light rain. Fog. (Weather station: Mary's Harbour, Canada). See more current weather

Past Weather in 51°36'01.1"N, 55°31'57.4"W — Graph

°F

51°36'01.1"N, 55°31'57.4"W Temperature Yesterday

Maximum temperature yesterday: 37 °F (at 9:30 am)
Minimum temperature yesterday: 34 °F (at 6:10 am)
Average temperature yesterday: 36 °F

High & Low Weather Summary for the Past Weeks

 TemperatureHumidityPressure
High57 °F (May 20, 3:30 pm)100% (May 12, 1:54 am)30.47 "Hg (May 12, 1:54 am)
Low30 °F (May 11, 4:30 am)46% (May 17, 6:30 pm)29.62 "Hg (May 13, 2:30 am)
Average39 °F88%30.04 "Hg
* Reported May 10 5:30 am — May 25 5:43 am, 51°36'01.1"N, 55°31'57.4"W. Weather by CustomWeather, © 2024

Note: Actual official high and low records may vary slightly from our data, if they occured in-between our weather recording intervals... More about our weather records

51°36'01.1"N, 55°31'57.4"W Weather History for the Previous 24 Hours

Scroll right to see more
 ConditionsComfort  
Time TempWeatherWind HumidityBarometerVisibility
5:43 am
Sat, May 25
36 °FLight rain. Fog.15 mph100%29.80 "Hg2 mi
5:03 am36 °FFog.10 mph100%29.82 "Hg2 mi
4:30 am36 °FLight rain. Fog.12 mph100%29.82 "Hg2 mi
3:30 am36 °FLight rain. Fog.12 mph100%29.83 "Hg1 mi
2:30 am36 °FLight rain. Fog.9 mph100%29.83 "Hg1 mi
1:30 am36 °FLight rain. Fog.9 mph100%29.84 "Hg2 mi
1:19 am36 °FLight rain. Fog.12 mph100%29.84 "Hg2 mi
12:54 am36 °FLight rain. Fog.8 mph100%29.84 "Hg2 mi
11:41 pm
Fri, May 24
36 °FLight rain. Fog.7 mph100%29.85 "Hg3 mi
11:30 pm36 °FLight rain. Fog.8 mph100%29.85 "Hg2 mi
11:01 pm36 °FLight rain. Fog.8 mph100%29.85 "Hg1 mi
10:30 pm36 °FFog.9 mph100%29.85 "Hg1 mi
10:10 pm36 °FFog.7 mph100%29.85 "Hg2 mi
9:35 pm36 °FFog.9 mph100%29.85 "Hg2 mi
9:26 pm36 °FLight rain. Fog.8 mph100%29.86 "Hg2 mi
9:07 pm36 °FLight rain. Fog.9 mph100%29.85 "Hg2 mi
8:30 pm36 °FLight rain. Fog.8 mph100%29.85 "Hg1 mi
8:10 pm36 °FFog.9 mph100%29.85 "Hg1 mi
7:30 pm37 °FFog.7 mph93%29.86 "Hg2 mi
6:39 pm37 °FFog.7 mph93%29.85 "Hg2 mi
5:30 pm37 °FLow clouds.12 mph93%29.85 "Hg9 mi
4:30 pm37 °FLow clouds.14 mph93%29.85 "Hg9 mi
3:30 pm37 °FLow clouds.13 mph100%29.85 "Hg7 mi
2:40 pm37 °FFog.13 mph100%29.86 "Hg5 mi
1:39 pm37 °FFog.10 mph93%29.86 "Hg6 mi
12:35 pm37 °FLight rain. Fog.14 mph93%29.86 "Hg6 mi
11:46 am37 °FLight rain. Fog.13 mph93%29.87 "Hg4 mi
10:56 am37 °FLight rain. Fog.12 mph93%29.88 "Hg6 mi
10:48 am37 °FLight rain. Fog.12 mph93%29.88 "Hg5 mi
9:30 am37 °FLow clouds.14 mph93%29.89 "Hg7 mi
8:30 am36 °FLight rain. Fog.8 mph93%29.91 "Hg5 mi
8:28 am36 °FLight rain. Fog.8 mph93%29.91 "Hg5 mi
7:55 am34 °FLight rain. Mostly cloudy.7 mph100%29.92 "Hg8 mi
7:28 am34 °FLight rain. Fog.7 mph93%29.91 "Hg3 mi
7:11 am34 °FLight mixture of precip. Mostly cloudy.7 mph100%29.91 "Hg5 mi
7:08 am34 °FLight rain. Fog.6 mph100%29.90 "Hg5 mi
6:35 am34 °FLight rain. Partly sunny.9 mph100%29.90 "Hg9 mi
6:10 am34 °FLight rain. Mostly cloudy.6 mph100%29.90 "Hg7 mi
Weather by CustomWeather, © 2024

See weather overview